Location: Milano
(45.4670°N, 9.2000°E)
Time: 20:28:24
(UTC+02:00)

ISS - Pass Details

Date: 23 May 2021
Orbit: 417 x 422 km, 51.6° (Epoch: 14 June)

Event Time Altitude Azimuth Distance (km) Brightness Sun altitude
Rises 00:33:36 0° 299° (WNW) 2,370 0.6 -23.1°
Reaches altitude 10° 00:35:42 10° 302° (WNW) 1,505 -0.4 -23.2°
Enters shadow 00:38:06 41° 318° (NW) 618 -2.6 -23.3°
